| time (UTC) | temp C | wind direction | speed KPH | gust KPH | rain 1hr cm | rain 24hr cm | rain mn cm | humidity % | barometer mb |
| 20260507195512 | 18 | 301 | 3.2 | 4.8 | 0.00 | 0.00 | 0.00 | 27 | 1015.0 |
| 20260507195012 | 18 | 282 | 1.6 | 3.2 | 0.00 | 0.00 | 0.00 | 29 | 1015.1 |
| 20260507194511 | 17 | 301 | 3.2 | 6.4 | 0.00 | 0.00 | 0.00 | 27 | 1015.1 |
| 20260507194010 | 18 | 310 | 1.6 | 4.8 | 0.00 | 0.00 | 0.00 | 28 | 1015.1 |
| 20260507193510 | 17 | 287 | 1.6 | 4.8 | 0.00 | 0.00 | 0.00 | 29 | 1015.2 |
| 20260507193009 | 17 | 299 | 1.6 | 3.2 | 0.00 | 0.00 | 0.00 | 29 | 1015.2 |
| 20260507192508 | 17 | 304 | 1.6 | 1.6 | 0.00 | 0.00 | 0.00 | 29 | 1015.3 |
| 20260507192007 | 17 | 285 | 1.6 | 1.6 | 0.00 | 0.00 | 0.00 | 29 | 1015.3 |
| 20260507191507 | 18 | 292 | 1.6 | 4.8 | 0.00 | 0.00 | 0.00 | 29 | 1015.5 |
| 20260507191006 | 18 | 309 | 1.6 | 3.2 | 0.00 | 0.00 | 0.00 | 29 | 1015.6 |
| 20260507190505 | 17 | 306 | 1.6 | 1.6 | 0.00 | 0.00 | 0.00 | 30 | 1015.7 |
| 20260507190005 | 17 | 318 | 1.6 | 3.2 | 0.00 | 0.00 | 0.00 | 30 | 1015.7 |
| 20260507185504 | 18 | 301 | 1.6 | 3.2 | 0.00 | 0.00 | 0.00 | 30 | 1015.8 |
| 20260507185003 | 17 | 293 | 1.6 | 3.2 | 0.00 | 0.00 | 0.00 | 31 | 1015.8 |
| 20260507184503 | 17 | 306 | 1.6 | 1.6 | 0.00 | 0.00 | 0.00 | 31 | 1015.8 |
| 20260507184002 | 17 | 306 | 1.6 | 4.8 | 0.00 | 0.00 | 0.00 | 30 | 1015.8 |
| 20260507183501 | 17 | 320 | 1.6 | 3.2 | 0.00 | 0.00 | 0.00 | 31 | 1015.8 |
| 20260507183001 | 17 | 306 | 1.6 | 1.6 | 0.00 | 0.00 | 0.00 | 30 | 1015.8 |
| 20260507182500 | 17 | 278 | 1.6 | 1.6 | 0.00 | 0.00 | 0.00 | 31 | 1015.8 |
| 20260507182000 | 17 | 294 | 1.6 | 1.6 | 0.00 | 0.00 | 0.00 | 33 | 1015.8 |
| 20260507181459 | 17 | 275 | 1.6 | 1.6 | 0.00 | 0.00 | 0.00 | 33 | 1015.9 |
| 20260507180958 | 17 | 273 | 1.6 | 4.8 | 0.00 | 0.00 | 0.00 | 34 | 1015.9 |
| 20260507180458 | 17 | 274 | 1.6 | 1.6 | 0.00 | 0.00 | 0.00 | 34 | 1015.9 |
| 20260507175957 | 17 | 281 | 1.6 | 1.6 | 0.00 | 0.00 | 0.00 | 34 | 1016.1 |
| 20260507175456 | 17 | 263 | 3.2 | 4.8 | 0.00 | 0.00 | 0.00 | 34 | 1016.1 |
| 20260507174956 | 17 | 276 | 1.6 | 3.2 | 0.00 | 0.00 | 0.00 | 35 | 1016.1 |
| 20260507174455 | 17 | 279 | 1.6 | 1.6 | 0.00 | 0.00 | 0.00 | 34 | 1016.1 |
| 20260507173955 | 16 | 265 | 1.6 | 3.2 | 0.00 | 0.00 | 0.00 | 35 | 1016.1 |
| 20260507173454 | 16 | 263 | 1.6 | 3.2 | 0.00 | 0.00 | 0.00 | 35 | 1016.2 |
| 20260507172953 | 17 | 279 | 1.6 | 1.6 | 0.00 | 0.00 | 0.00 | 34 | 1016.2 |
| 20260507172453 | 16 | 275 | 1.6 | 1.6 | 0.00 | 0.00 | 0.00 | 34 | 1016.3 |
| 20260507171952 | 16 | 272 | 1.6 | 3.2 | 0.00 | 0.00 | 0.00 | 35 | 1016.3 |
| 20260507171451 | 16 | 248 | 3.2 | 4.8 | 0.00 | 0.00 | 0.00 | 35 | 1016.3 |
| 20260507170951 | 15 | 259 | 1.6 | 4.8 | 0.00 | 0.00 | 0.00 | 35 | 1016.4 |
| 20260507170450 | 15 | 267 | 1.6 | 3.2 | 0.00 | 0.00 | 0.00 | 39 | 1016.4 |
| 20260507165949 | 15 | 261 | 1.6 | 3.2 | 0.00 | 0.00 | 0.00 | 36 | 1016.5 |
| 20260507165449 | 15 | 266 | 1.6 | 1.6 | 0.00 | 0.00 | 0.00 | 37 | 1016.5 |
| 20260507164948 | 15 | 249 | 3.2 | 4.8 | 0.00 | 0.00 | 0.00 | 39 | 1016.5 |
| 20260507164448 | 15 | 268 | 1.6 | 3.2 | 0.00 | 0.00 | 0.00 | 37 | 1016.5 |
| 20260507163947 | 15 | 275 | 1.6 | 1.6 | 0.00 | 0.00 | 0.00 | 37 | 1016.6 |
| 20260507163446 | 15 | 265 | 1.6 | 3.2 | 0.00 | 0.00 | 0.00 | 36 | 1016.6 |
| 20260507162945 | 15 | 252 | 3.2 | 4.8 | 0.00 | 0.00 | 0.00 | 39 | 1016.6 |
| 20260507162445 | 15 | 253 | 3.2 | 4.8 | 0.00 | 0.00 | 0.00 | 39 | 1016.5 |
| 20260507161944 | 14 | 260 | 3.2 | 4.8 | 0.00 | 0.00 | 0.00 | 39 | 1016.6 |
| 20260507161443 | 14 | 268 | 1.6 | 3.2 | 0.00 | 0.00 | 0.00 | 38 | 1016.6 |
| 20260507160943 | 14 | 250 | 3.2 | 4.8 | 0.00 | 0.00 | 0.00 | 38 | 1016.6 |
| 20260507160442 | 13 | 255 | 3.2 | 4.8 | 0.00 | 0.00 | 0.00 | 38 | 1016.8 |
| 20260507155942 | 13 | 252 | 3.2 | 4.8 | 0.00 | 0.00 | 0.00 | 39 | 1016.9 |
| 20260507155441 | 13 | 254 | 1.6 | 3.2 | 0.00 | 0.00 | 0.00 | 39 | 1017.0 |
| 20260507154940 | 13 | 254 | 1.6 | 4.8 | 0.00 | 0.00 | 0.00 | 39 | 1017.0 |
| 20260507154440 | 13 | 249 | 3.2 | 4.8 | 0.00 | 0.00 | 0.00 | 39 | 1017.0 |
| 20260507153939 | 12 | 258 | 1.6 | 4.8 | 0.00 | 0.00 | 0.00 | 41 | 1017.1 |
| 20260507153438 | 12 | 253 | 1.6 | 1.6 | 0.00 | 0.00 | 0.00 | 43 | 1017.1 |
| 20260507152938 | 11 | 250 | 3.2 | 4.8 | 0.00 | 0.00 | 0.00 | 42 | 1017.0 |
| 20260507152437 | 11 | 238 | 3.2 | 3.2 | 0.00 | 0.00 | 0.00 | 42 | 1017.0 |
| 20260507151937 | 11 | 243 | 1.6 | 3.2 | 0.00 | 0.00 | 0.00 | 43 | 1017.0 |
| 20260507151436 | 11 | 241 | 1.6 | 3.2 | 0.00 | 0.00 | 0.00 | 43 | 1017.0 |
| 20260507150935 | 11 | 240 | 3.2 | 3.2 | 0.00 | 0.00 | 0.00 | 42 | 1017.1 |
| 20260507150435 | 10 | 246 | 1.6 | 3.2 | 0.00 | 0.00 | 0.00 | 44 | 1017.2 |
| 20260507145934 | 10 | 248 | 3.2 | 3.2 | 0.00 | 0.00 | 0.00 | 43 | 1017.2 |
| 20260507145827 | 10 | 242 | 1.6 | 1.6 | 0.00 | 0.00 | 0.00 | 44 | 1017.2 |
| 20260507145433 | 10 | 242 | 1.6 | 1.6 | 0.00 | 0.00 | 0.00 | 44 | 1017.2 |
| 20260507144933 | 10 | 247 | 1.6 | 3.2 | 0.00 | 0.00 | 0.00 | 44 | 1017.2 |
| 20260507144432 | 10 | 240 | 1.6 | 3.2 | 0.00 | 0.00 | 0.00 | 44 | 1017.2 |
| 20260507143932 | 10 | 210 | 3.2 | 4.8 | 0.00 | 0.00 | 0.00 | 43 | 1017.1 |
| 20260507143431 | 9 | 241 | 1.6 | 3.2 | 0.00 | 0.00 | 0.00 | 44 | 1017.2 |
| 20260507142930 | 9 | 229 | 1.6 | 3.2 | 0.00 | 0.00 | 0.00 | 44 | 1017.1 |
| 20260507142430 | 9 | 241 | 3.2 | 3.2 | 0.00 | 0.00 | 0.00 | 45 | 1017.1 |
| 20260507141929 | 8 | 237 | 3.2 | 3.2 | 0.00 | 0.00 | 0.00 | 46 | 1017.0 |
| 20260507141428 | 8 | 244 | 1.6 | 3.2 | 0.00 | 0.00 | 0.00 | 46 | 1017.1 |
| 20260507140928 | 8 | 244 | 1.6 | 3.2 | 0.00 | 0.00 | 0.00 | 45 | 1017.1 |
| 20260507140427 | 8 | 243 | 1.6 | 3.2 | 0.00 | 0.00 | 0.00 | 47 | 1017.1 |
| 20260507135926 | 8 | 246 | 1.6 | 3.2 | 0.00 | 0.00 | 0.00 | 46 | 1017.0 |
| 20260507135426 | 7 | 258 | 1.6 | 3.2 | 0.00 | 0.00 | 0.00 | 47 | 1017.1 |
| 20260507134925 | 7 | 249 | 1.6 | 3.2 | 0.00 | 0.00 | 0.00 | 48 | 1017.0 |
| 20260507134425 | 7 | 246 | 1.6 | 3.2 | 0.00 | 0.00 | 0.00 | 48 | 1017.1 |
| 20260507133924 | 7 | 245 | 1.6 | 3.2 | 0.00 | 0.00 | 0.00 | 48 | 1017.1 |
| 20260507133423 | 7 | 256 | 1.6 | 3.2 | 0.00 | 0.00 | 0.00 | 49 | 1017.0 |
| 20260507133332 | 6 | 248 | 1.6 | 3.2 | 0.00 | 0.00 | 0.00 | 49 | 1017.0 |
| 20260507132923 | 6 | 248 | 1.6 | 3.2 | 0.00 | 0.00 | 0.00 | 49 | 1017.0 |
| 20260507132827 | 6 | 246 | 3.2 | 4.8 | 0.00 | 0.00 | 0.00 | 48 | 1016.9 |
| 20260507132422 | 6 | 246 | 3.2 | 4.8 | 0.00 | 0.00 | 0.00 | 48 | 1016.9 |
| 20260507131921 | 6 | 250 | 3.2 | 3.2 | 0.00 | 0.00 | 0.00 | 48 | 1016.8 |
| 20260507131421 | 6 | 243 | 3.2 | 3.2 | 0.00 | 0.00 | 0.00 | 48 | 1016.8 |
| 20260507131330 | 6 | 245 | 3.2 | 3.2 | 0.00 | 0.00 | 0.00 | 49 | 1016.8 |
| 20260507130920 | 6 | 245 | 3.2 | 3.2 | 0.00 | 0.00 | 0.00 | 49 | 1016.8 |
| 20260507130829 | 5 | 242 | 3.2 | 3.2 | 0.00 | 0.00 | 0.00 | 49 | 1016.8 |
| 20260507130420 | 5 | 242 | 3.2 | 3.2 | 0.00 | 0.00 | 0.00 | 49 | 1016.8 |
| 20260507130324 | 5 | 241 | 1.6 | 3.2 | 0.00 | 0.00 | 0.00 | 51 | 1016.8 |
| 20260507125919 | 5 | 241 | 1.6 | 3.2 | 0.00 | 0.00 | 0.00 | 51 | 1016.8 |
| 20260507125828 | 5 | 251 | 1.6 | 3.2 | 0.00 | 0.00 | 0.00 | 51 | 1016.8 |
| 20260507125418 | 5 | 251 | 1.6 | 3.2 | 0.00 | 0.00 | 0.00 | 51 | 1016.8 |
| 20260507124918 | 5 | 240 | 1.6 | 3.2 | 0.00 | 0.00 | 0.00 | 51 | 1016.6 |
| 20260507124417 | 5 | 249 | 1.6 | 3.2 | 0.00 | 0.00 | 0.00 | 51 | 1016.6 |
| 20260507123917 | 5 | 247 | 1.6 | 3.2 | 0.00 | 0.00 | 0.00 | 52 | 1016.4 |
| 20260507123418 | 4 | 244 | 1.6 | 3.2 | 0.00 | 0.00 | 0.00 | 52 | 1016.4 |
| 20260507122915 | 4 | 246 | 1.6 | 3.2 | 0.00 | 0.00 | 0.00 | 53 | 1016.4 |
| 20260507122415 | 4 | 246 | 1.6 | 3.2 | 0.00 | 0.00 | 0.00 | 53 | 1016.3 |
| 20260507121914 | 4 | 249 | 1.6 | 3.2 | 0.00 | 0.00 | 0.00 | 52 | 1016.4 |
| 20260507121413 | 4 | 250 | 3.2 | 3.2 | 0.00 | 0.00 | 0.00 | 52 | 1016.3 |
| 20260507120913 | 4 | 247 | 1.6 | 3.2 | 0.00 | 0.00 | 0.00 | 53 | 1016.4 |
| 20260507120412 | 3 | 242 | 1.6 | 3.2 | 0.00 | 0.00 | 0.00 | 53 | 1016.4 |
| 20260507115912 | 3 | 240 | 1.6 | 3.2 | 0.00 | 0.00 | 0.00 | 54 | 1016.4 |
| 20260507115821 | 3 | 240 | 1.6 | 1.6 | 0.00 | 0.00 | 0.00 | 54 | 1016.4 |
| 20260507115411 | 3 | 240 | 1.6 | 1.6 | 0.00 | 0.00 | 0.00 | 54 | 1016.4 |
| 20260507114910 | 3 | 241 | 1.6 | 1.6 | 0.00 | 0.00 | 0.00 | 54 | 1016.4 |
| 20260507114410 | 3 | 253 | 1.6 | 1.6 | 0.00 | 0.00 | 0.00 | 56 | 1016.4 |
| 20260507113909 | 3 | 247 | 1.6 | 3.2 | 0.00 | 0.00 | 0.00 | 54 | 1016.3 |
| 20260507113409 | 3 | 252 | 1.6 | 1.6 | 0.00 | 0.00 | 0.00 | 54 | 1016.3 |
| 20260507113319 | 3 | 244 | 1.6 | 1.6 | 0.00 | 0.00 | 0.00 | 56 | 1016.2 |
| 20260507112908 | 3 | 244 | 1.6 | 1.6 | 0.00 | 0.00 | 0.00 | 56 | 1016.2 |
| 20260507112407 | 3 | 243 | 1.6 | 3.2 | 0.00 | 0.00 | 0.00 | 56 | 1016.2 |
| 20260507111907 | 3 | 250 | 3.2 | 3.2 | 0.00 | 0.00 | 0.00 | 55 | 1016.2 |
| 20260507111406 | 3 | 247 | 1.6 | 3.2 | 0.00 | 0.00 | 0.00 | 56 | 1016.2 |
| 20260507110906 | 3 | 245 | 1.6 | 3.2 | 0.00 | 0.00 | 0.00 | 55 | 1016.2 |
| 20260507110405 | 3 | 247 | 1.6 | 3.2 | 0.00 | 0.00 | 0.00 | 55 | 1016.2 |
| 20260507110315 | 3 | 247 | 3.2 | 3.2 | 0.00 | 0.00 | 0.00 | 56 | 1016.2 |
| 20260507105904 | 3 | 247 | 3.2 | 3.2 | 0.00 | 0.00 | 0.00 | 56 | 1016.2 |
| 20260507105404 | 3 | 246 | 3.2 | 3.2 | 0.00 | 0.00 | 0.00 | 55 | 1016.2 |
| 20260507105314 | 3 | 239 | 1.6 | 3.2 | 0.00 | 0.00 | 0.00 | 56 | 1016.3 |
| 20260507104903 | 3 | 239 | 1.6 | 3.2 | 0.00 | 0.00 | 0.00 | 56 | 1016.3 |
| 20260507104402 | 3 | 247 | 1.6 | 1.6 | 0.00 | 0.00 | 0.00 | 56 | 1016.3 |
| 20260507104313 | 3 | 243 | 1.6 | 1.6 | 0.00 | 0.00 | 0.00 | 56 | 1016.3 |
| 20260507103902 | 3 | 243 | 1.6 | 1.6 | 0.00 | 0.00 | 0.00 | 56 | 1016.3 |
| 20260507103812 | 3 | 246 | 1.6 | 3.2 | 0.00 | 0.00 | 0.00 | 57 | 1016.3 |
| 20260507103401 | 3 | 246 | 1.6 | 3.2 | 0.00 | 0.00 | 0.00 | 57 | 1016.3 |
| 20260507103312 | 3 | 245 | 1.6 | 1.6 | 0.00 | 0.00 | 0.00 | 58 | 1016.4 |
| 20260507102901 | 3 | 245 | 1.6 | 1.6 | 0.00 | 0.00 | 0.00 | 58 | 1016.4 |
| 20260507102400 | 3 | 245 | 1.6 | 3.2 | 0.00 | 0.00 | 0.00 | 57 | 1016.4 |
| 20260507101859 | 3 | 246 | 1.6 | 3.2 | 0.00 | 0.00 | 0.00 | 58 | 1016.5 |
| 20260507101805 | 3 | 239 | 1.6 | 3.2 | 0.00 | 0.00 | 0.00 | 58 | 1016.5 |
| 20260507101359 | 3 | 239 | 1.6 | 3.2 | 0.00 | 0.00 | 0.00 | 58 | 1016.5 |
| 20260507100858 | 3 | 246 | 1.6 | 3.2 | 0.00 | 0.00 | 0.00 | 59 | 1016.6 |
| 20260507100355 | 3 | 248 | 1.6 | 3.2 | 0.00 | 0.00 | 0.00 | 60 | 1016.6 |
| 20260507100259 | 3 | 248 | 1.6 | 1.6 | 0.00 | 0.00 | 0.00 | 61 | 1016.6 |
| 20260507095854 | 3 | 248 | 1.6 | 1.6 | 0.00 | 0.00 | 0.00 | 61 | 1016.6 |
| 20260507095803 | 3 | 251 | 3.2 | 3.2 | 0.00 | 0.00 | 0.00 | 61 | 1016.6 |
| 20260507095353 | 3 | 251 | 3.2 | 3.2 | 0.00 | 0.00 | 0.00 | 61 | 1016.6 |
| 20260507095258 | 3 | 248 | 1.6 | 3.2 | 0.00 | 0.00 | 0.00 | 60 | 1016.6 |
| 20260507094853 | 3 | 248 | 1.6 | 3.2 | 0.00 | 0.00 | 0.00 | 60 | 1016.6 |
| 20260507094802 | 3 | 249 | 1.6 | 3.2 | 0.00 | 0.00 | 0.00 | 62 | 1016.6 |
| 20260507094352 | 3 | 249 | 1.6 | 3.2 | 0.00 | 0.00 | 0.00 | 62 | 1016.6 |
| 20260507094302 | 3 | 244 | 1.6 | 3.2 | 0.00 | 0.00 | 0.00 | 62 | 1016.6 |
| 20260507093851 | 3 | 244 | 1.6 | 3.2 | 0.00 | 0.00 | 0.00 | 62 | 1016.6 |
| 20260507093801 | 3 | 247 | 1.6 | 3.2 | 0.00 | 0.00 | 0.00 | 62 | 1016.6 |
| 20260507093351 | 3 | 247 | 1.6 | 3.2 | 0.00 | 0.00 | 0.00 | 62 | 1016.6 |
| 20260507093301 | 3 | 244 | 1.6 | 1.6 | 0.00 | 0.00 | 0.00 | 62 | 1016.6 |
| 20260507092850 | 3 | 244 | 1.6 | 1.6 | 0.00 | 0.00 | 0.00 | 62 | 1016.6 |
| 20260507092349 | 3 | 247 | 1.6 | 3.2 | 0.00 | 0.00 | 0.00 | 61 | 1016.6 |
| 20260507092300 | 2 | 243 | 1.6 | 1.6 | 0.00 | 0.00 | 0.00 | 63 | 1016.6 |
| 20260507091849 | 2 | 243 | 1.6 | 1.6 | 0.00 | 0.00 | 0.00 | 63 | 1016.6 |
| 20260507091759 | 3 | 242 | 1.6 | 1.6 | 0.00 | 0.00 | 0.00 | 64 | 1016.8 |
| 20260507091348 | 3 | 242 | 1.6 | 1.6 | 0.00 | 0.00 | 0.00 | 64 | 1016.8 |
| 20260507090847 | 3 | 245 | 1.6 | 1.6 | 0.00 | 0.00 | 0.00 | 63 | 1016.8 |
| 20260507090347 | 2 | 244 | 1.6 | 3.2 | 0.00 | 0.00 | 0.00 | 64 | 1016.6 |
| 20260507085846 | 2 | 245 | 1.6 | 3.2 | 0.00 | 0.00 | 0.00 | 64 | 1016.6 |
| 20260507085345 | 2 | 246 | 1.6 | 3.2 | 0.00 | 0.00 | 0.00 | 65 | 1016.6 |
| 20260507084844 | 2 | 241 | 1.6 | 3.2 | 0.00 | 0.00 | 0.00 | 67 | 1016.6 |
| 20260507084343 | 2 | 245 | 1.6 | 3.2 | 0.00 | 0.00 | 0.00 | 68 | 1016.6 |
| 20260507083843 | 2 | 250 | 1.6 | 3.2 | 0.00 | 0.00 | 0.00 | 68 | 1016.6 |
| 20260507083342 | 2 | 242 | 1.6 | 3.2 | 0.00 | 0.00 | 0.00 | 70 | 1016.8 |
| 20260507083251 | 2 | 250 | 1.6 | 1.6 | 0.00 | 0.00 | 0.00 | 69 | 1016.8 |
| 20260507082842 | 2 | 250 | 1.6 | 1.6 | 0.00 | 0.00 | 0.00 | 69 | 1016.8 |
| 20260507082341 | 2 | 252 | 1.6 | 3.2 | 0.00 | 0.00 | 0.00 | 68 | 1016.8 |
| 20260507081840 | 2 | 251 | 1.6 | 3.2 | 0.00 | 0.00 | 0.00 | 69 | 1016.9 |
| 20260507081749 | 2 | 244 | 1.6 | 3.2 | 0.00 | 0.00 | 0.00 | 69 | 1017.0 |
| 20260507081339 | 2 | 244 | 1.6 | 3.2 | 0.00 | 0.00 | 0.00 | 69 | 1017.0 |
| 20260507080839 | 2 | 243 | 1.6 | 1.6 | 0.00 | 0.00 | 0.00 | 70 | 1017.1 |
| 20260507080338 | 2 | 244 | 1.6 | 1.6 | 0.00 | 0.00 | 0.00 | 71 | 1017.2 |
| 20260507075838 | 2 | 247 | 1.6 | 3.2 | 0.00 | 0.00 | 0.00 | 71 | 1017.1 |
| 20260507075337 | 2 | 245 | 1.6 | 3.2 | 0.00 | 0.00 | 0.00 | 73 | 1017.1 |
| 20260507074836 | 2 | 246 | 3.2 | 4.8 | 0.00 | 0.00 | 0.00 | 74 | 1017.1 |
| 20260507074746 | 2 | 246 | 1.6 | 3.2 | 0.00 | 0.00 | 0.00 | 74 | 1017.2 |
| 20260507074336 | 2 | 246 | 1.6 | 3.2 | 0.00 | 0.00 | 0.00 | 74 | 1017.2 |
| 20260507073835 | 2 | 242 | 3.2 | 4.8 | 0.00 | 0.00 | 0.00 | 75 | 1017.2 |
| 20260507073334 | 2 | 251 | 1.6 | 3.2 | 0.00 | 0.00 | 0.00 | 75 | 1017.4 |
| 20260507073244 | 2 | 252 | 3.2 | 3.2 | 0.00 | 0.00 | 0.00 | 76 | 1017.4 |
| 20260507072834 | 2 | 252 | 3.2 | 3.2 | 0.00 | 0.00 | 0.00 | 76 | 1017.4 |
| 20260507072744 | 2 | 246 | 1.6 | 3.2 | 0.00 | 0.00 | 0.00 | 76 | 1017.4 |
| 20260507072333 | 2 | 246 | 1.6 | 3.2 | 0.00 | 0.00 | 0.00 | 76 | 1017.4 |
| 20260507071832 | 2 | 252 | 1.6 | 3.2 | 0.00 | 0.00 | 0.00 | 76 | 1017.4 |
| 20260507071332 | 2 | 243 | 1.6 | 3.2 | 0.00 | 0.00 | 0.00 | 76 | 1017.5 |
| 20260507070831 | 2 | 250 | 1.6 | 3.2 | 0.00 | 0.00 | 0.00 | 76 | 1017.6 |
| 20260507070330 | 2 | 248 | 1.6 | 3.2 | 0.00 | 0.00 | 0.00 | 75 | 1017.6 |
| 20260507065830 | 2 | 246 | 1.6 | 3.2 | 0.00 | 0.00 | 0.00 | 76 | 1017.5 |
| 20260507065329 | 2 | 242 | 1.6 | 1.6 | 0.00 | 0.00 | 0.00 | 77 | 1017.5 |
| 20260507064828 | 2 | 244 | 1.6 | 1.6 | 0.00 | 0.00 | 0.00 | 77 | 1017.5 |
| 20260507064740 | 2 | 242 | 1.6 | 1.6 | 0.00 | 0.00 | 0.00 | 79 | 1017.5 |
| 20260507064327 | 2 | 242 | 1.6 | 1.6 | 0.00 | 0.00 | 0.00 | 79 | 1017.5 |
| 20260507063827 | 2 | 251 | 1.6 | 1.6 | 0.00 | 0.00 | 0.00 | 80 | 1017.6 |
| 20260507063326 | 2 | 245 | 1.6 | 1.6 | 0.00 | 0.00 | 0.00 | 81 | 1017.6 |
| 20260507063234 | 1 | 245 | 1.6 | 1.6 | 0.00 | 0.00 | 0.00 | 82 | 1017.6 |
| 20260507062825 | 1 | 245 | 1.6 | 1.6 | 0.00 | 0.00 | 0.00 | 82 | 1017.6 |
| 20260507062325 | 1 | 242 | 1.6 | 1.6 | 0.00 | 0.00 | 0.00 | 82 | 1017.6 |
| 20260507061824 | 1 | 244 | 1.6 | 1.6 | 0.00 | 0.00 | 0.00 | 83 | 1017.6 |
| 20260507061732 | 1 | 231 | 1.6 | 1.6 | 0.00 | 0.00 | 0.00 | 85 | 1017.6 |
| 20260507061323 | 1 | 231 | 1.6 | 1.6 | 0.00 | 0.00 | 0.00 | 85 | 1017.6 |
| 20260507060823 | 1 | 225 | 0.0 | 0.0 | 0.00 | 0.00 | 0.00 | 85 | 1017.7 |
| 20260507060732 | 1 | 241 | 1.6 | 1.6 | 0.00 | 0.00 | 0.00 | 84 | 1017.7 |
| 20260507060322 | 1 | 241 | 1.6 | 1.6 | 0.00 | 0.00 | 0.00 | 84 | 1017.7 |
| 20260507055821 | 1 | 242 | 1.6 | 1.6 | 0.00 | 0.00 | 2.36 | 84 | 1017.7 |
| 20260507055721 | 1 | 245 | 1.6 | 1.6 | 0.00 | 0.00 | 2.36 | 84 | 1017.8 |
| 20260507055321 | 1 | 245 | 1.6 | 1.6 | 0.00 | 0.00 | 2.36 | 84 | 1017.8 |
| 20260507055230 | 1 | 233 | 1.6 | 1.6 | 0.00 | 0.00 | 2.36 | 85 | 1017.7 |
| 20260507054820 | 1 | 233 | 1.6 | 1.6 | 0.00 | 0.00 | 2.36 | 85 | 1017.7 |
| 20260507054319 | 1 | 238 | 1.6 | 1.6 | 0.00 | 0.00 | 2.36 | 86 | 1017.8 |
| 20260507054224 | 1 | 241 | 1.6 | 1.6 | 0.00 | 0.00 | 2.36 | 86 | 1017.9 |
| 20260507053819 | 1 | 241 | 1.6 | 1.6 | 0.00 | 0.00 | 2.36 | 86 | 1017.9 |
| 20260507053719 | 1 | 240 | 0.0 | 1.6 | 0.00 | 0.00 | 2.36 | 86 | 1017.9 |
| 20260507053318 | 1 | 240 | 0.0 | 1.6 | 0.00 | 0.00 | 2.36 | 86 | 1017.9 |
| 20260507052817 | 1 | 234 | 1.6 | 1.6 | 0.00 | 0.00 | 2.36 | 86 | 1018.1 |
| 20260507052728 | 1 | 225 | 0.0 | 1.6 | 0.00 | 0.00 | 2.36 | 88 | 1017.9 |
| 20260507052317 | 1 | 225 | 0.0 | 1.6 | 0.00 | 0.00 | 2.36 | 88 | 1017.9 |
| 20260507052227 | 1 | 229 | 0.0 | 1.6 | 0.00 | 0.00 | 2.36 | 85 | 1018.1 |
| 20260507051816 | 1 | 229 | 0.0 | 1.6 | 0.00 | 0.00 | 2.36 | 85 | 1018.1 |
| 20260507051316 | 1 | 207 | 0.0 | 1.6 | 0.00 | 0.00 | 2.36 | 86 | 1018.2 |
| 20260507050815 | 1 | 228 | 0.0 | 1.6 | 0.00 | 0.00 | 2.36 | 85 | 1018.2 |
| 20260507050314 | 1 | 224 | 1.6 | 1.6 | 0.00 | 0.00 | 2.36 | 85 | 1018.2 |
| 20260507045814 | 1 | 225 | 0.0 | 1.6 | 0.00 | 0.00 | 2.36 | 86 | 1018.2 |
| 20260507045313 | 1 | 218 | 0.0 | 1.6 | 0.00 | 0.00 | 2.36 | 86 | 1018.2 |
| 20260507044812 | 1 | 186 | 0.0 | 1.6 | 0.00 | 0.00 | 2.36 | 86 | 1018.3 |
| 20260507044312 | 1 | 136 | 0.0 | 0.0 | 0.00 | 0.00 | 2.36 | 87 | 1018.2 |
| 20260507043811 | 1 | 147 | 0.0 | 0.0 | 0.00 | 0.00 | 2.36 | 87 | 1018.2 |
| 20260507043310 | 1 | 191 | 1.6 | 1.6 | 0.00 | 0.00 | 2.36 | 87 | 1018.2 |
| 20260507042810 | 1 | 333 | 0.0 | 0.0 | 0.00 | 0.00 | 2.36 | 88 | 1018.2 |
| 20260507042309 | 1 | 148 | 1.6 | 1.6 | 0.00 | 0.00 | 2.36 | 88 | 1018.2 |
| 20260507041808 | 1 | 169 | 1.6 | 1.6 | 0.00 | 0.00 | 2.36 | 90 | 1018.2 |
| 20260507041701 | 1 | 106 | 0.0 | 1.6 | 0.00 | 0.00 | 2.36 | 88 | 1018.4 |
| 20260507041308 | 1 | 106 | 0.0 | 1.6 | 0.00 | 0.00 | 2.36 | 88 | 1018.4 |
| 20260507040807 | 1 | 119 | 0.0 | 1.6 | 0.00 | 0.00 | 2.36 | 87 | 1018.4 |
| 20260507040306 | 1 | 74 | 0.0 | 0.0 | 0.00 | 0.00 | 2.36 | 87 | 1018.4 |
| 20260507040215 | 1 | 84 | 0.0 | 1.6 | 0.00 | 0.00 | 2.36 | 90 | 1018.3 |
| 20260507035806 | 1 | 84 | 0.0 | 1.6 | 0.00 | 0.00 | 2.36 | 90 | 1018.3 |
| 20260507035306 | 1 | 54 | 0.0 | 0.0 | 0.00 | 0.00 | 2.36 | 89 | 1018.3 |
| 20260507035209 | 1 | 166 | 0.0 | 0.0 | 0.00 | 0.00 | 2.36 | 88 | 1018.3 |
| 20260507034805 | 1 | 166 | 0.0 | 0.0 | 0.00 | 0.00 | 2.36 | 88 | 1018.3 |
| 20260507034304 | 1 | 185 | 0.0 | 0.0 | 0.00 | 0.00 | 2.36 | 87 | 1018.3 |
| 20260507034213 | 1 | 105 | 0.0 | 0.0 | 0.00 | 0.00 | 2.36 | 86 | 1018.2 |
| 20260507033803 | 1 | 105 | 0.0 | 0.0 | 0.00 | 0.00 | 2.36 | 86 | 1018.2 |
| 20260507033712 | 1 | 170 | 0.0 | 0.0 | 0.00 | 0.00 | 2.36 | 81 | 1018.2 |
| 20260507033303 | 1 | 170 | 0.0 | 0.0 | 0.00 | 0.00 | 2.36 | 81 | 1018.2 |
| 20260507032802 | 2 | 147 | 0.0 | 1.6 | 0.00 | 0.00 | 2.36 | 82 | 1018.2 |
| 20260507032305 | 2 | 173 | 0.0 | 0.0 | 0.00 | 0.00 | 2.36 | 80 | 1018.2 |
| 20260507031801 | 2 | 164 | 0.0 | 0.0 | 0.00 | 0.00 | 2.36 | 79 | 1018.2 |
| 20260507031300 | 2 | 166 | 0.0 | 1.6 | 0.00 | 0.00 | 2.36 | 78 | 1018.2 |
| 20260507030759 | 2 | 168 | 0.0 | 1.6 | 0.00 | 0.00 | 2.36 | 78 | 1018.2 |
| 20260507030259 | 2 | 152 | 0.0 | 1.6 | 0.00 | 0.00 | 2.36 | 77 | 1018.1 |
| 20260507030209 | 2 | 157 | 1.6 | 1.6 | 0.00 | 0.00 | 2.36 | 77 | 1018.1 |
| 20260507025758 | 2 | 157 | 1.6 | 1.6 | 0.00 | 0.00 | 2.36 | 77 | 1018.1 |
| 20260507025257 | 2 | 161 | 1.6 | 1.6 | 0.00 | 0.00 | 2.36 | 76 | 1018.1 |
| 20260507025208 | 2 | 193 | 1.6 | 1.6 | 0.00 | 0.00 | 2.36 | 75 | 1017.9 |
| 20260507024757 | 2 | 193 | 1.6 | 1.6 | 0.00 | 0.00 | 2.36 | 75 | 1017.9 |
| 20260507024707 | 2 | 202 | 1.6 | 1.6 | 0.00 | 0.00 | 2.36 | 75 | 1017.9 |
| 20260507024256 | 2 | 202 | 1.6 | 1.6 | 0.00 | 0.00 | 2.36 | 75 | 1017.9 |
| 20260507024207 | 2 | 194 | 0.0 | 1.6 | 0.00 | 0.00 | 2.36 | 74 | 1017.9 |
| 20260507023756 | 2 | 194 | 0.0 | 1.6 | 0.00 | 0.00 | 2.36 | 74 | 1017.9 |
| 20260507023706 | 2 | 204 | 1.6 | 1.6 | 0.00 | 0.00 | 2.36 | 74 | 1017.9 |
| 20260507023255 | 2 | 204 | 1.6 | 1.6 | 0.00 | 0.00 | 2.36 | 74 | 1017.9 |
| 20260507023201 | 2 | 185 | 1.6 | 1.6 | 0.00 | 0.00 | 2.36 | 73 | 1017.9 |
| 20260507022754 | 2 | 185 | 1.6 | 1.6 | 0.00 | 0.00 | 2.36 | 73 | 1017.9 |
| 20260507022655 | 3 | 191 | 1.6 | 1.6 | 0.00 | 0.00 | 2.36 | 73 | 1017.9 |
| 20260507022254 | 3 | 191 | 1.6 | 1.6 | 0.00 | 0.00 | 2.36 | 73 | 1017.9 |
| 20260507021753 | 3 | 223 | 1.6 | 1.6 | 0.00 | 0.00 | 2.36 | 72 | 1017.9 |
| 20260507021252 | 3 | 202 | 1.6 | 3.2 | 0.00 | 0.00 | 2.36 | 71 | 1017.9 |
| 20260507020752 | 3 | 212 | 1.6 | 1.6 | 0.00 | 0.00 | 2.36 | 71 | 1017.9 |
| 20260507020659 | 3 | 207 | 1.6 | 3.2 | 0.00 | 0.00 | 2.36 | 70 | 1017.8 |
| 20260507020251 | 3 | 207 | 1.6 | 3.2 | 0.00 | 0.00 | 2.36 | 70 | 1017.8 |
| 20260507015750 | 3 | 194 | 1.6 | 3.2 | 0.00 | 0.00 | 2.36 | 70 | 1017.8 |
| 20260507015652 | 3 | 203 | 1.6 | 3.2 | 0.00 | 0.00 | 2.36 | 69 | 1017.8 |
| 20260507015250 | 3 | 203 | 1.6 | 3.2 | 0.00 | 0.00 | 2.36 | 69 | 1017.8 |
| 20260507014749 | 3 | 200 | 1.6 | 3.2 | 0.00 | 0.00 | 2.36 | 68 | 1017.9 |
| 20260507014656 | 3 | 194 | 1.6 | 4.8 | 0.00 | 0.00 | 2.36 | 67 | 1017.9 |
| 20260507014248 | 3 | 194 | 1.6 | 4.8 | 0.00 | 0.00 | 2.36 | 67 | 1017.9 |
| 20260507013748 | 3 | 228 | 1.6 | 3.2 | 0.00 | 0.00 | 2.36 | 67 | 1017.9 |
| 20260507013247 | 3 | 208 | 1.6 | 1.6 | 0.00 | 0.00 | 2.36 | 67 | 1017.9 |
| 20260507012746 | 3 | 202 | 3.2 | 4.8 | 0.00 | 0.00 | 2.36 | 66 | 1018.1 |
| 20260507012246 | 3 | 231 | 1.6 | 3.2 | 0.00 | 0.00 | 2.36 | 67 | 1018.1 |
| 20260507011745 | 3 | 203 | 3.2 | 4.8 | 0.00 | 0.00 | 2.36 | 66 | 1018.1 |
| 20260507011245 | 3 | 207 | 1.6 | 3.2 | 0.00 | 0.00 | 2.36 | 68 | 1018.1 |
| 20260507010744 | 3 | 195 | 1.6 | 3.2 | 0.00 | 0.00 | 2.36 | 66 | 1018.1 |
| 20260507010654 | 3 | 216 | 1.6 | 3.2 | 0.00 | 0.00 | 2.36 | 66 | 1018.2 |
| 20260507010243 | 3 | 216 | 1.6 | 3.2 | 0.00 | 0.00 | 2.36 | 66 | 1018.2 |
| 20260507005742 | 3 | 243 | 1.6 | 3.2 | 0.00 | 0.00 | 2.36 | 67 | 1018.2 |
| 20260507005653 | 3 | 187 | 1.6 | 3.2 | 0.00 | 0.00 | 2.36 | 67 | 1018.2 |
| 20260507005242 | 3 | 187 | 1.6 | 3.2 | 0.00 | 0.00 | 2.36 | 67 | 1018.2 |
| 20260507004741 | 3 | 193 | 1.6 | 3.2 | 0.00 | 0.00 | 2.36 | 66 | 1018.2 |
| 20260507004241 | 3 | 214 | 1.6 | 3.2 | 0.00 | 0.00 | 2.36 | 68 | 1018.3 |
| 20260507003740 | 3 | 237 | 1.6 | 3.2 | 0.00 | 0.00 | 2.36 | 66 | 1018.3 |
| 20260507003239 | 3 | 214 | 1.6 | 1.6 | 0.00 | 0.00 | 2.36 | 65 | 1018.4 |
| 20260507003150 | 3 | 243 | 1.6 | 1.6 | 0.00 | 0.00 | 2.36 | 66 | 1018.5 |
| 20260507002739 | 3 | 243 | 1.6 | 1.6 | 0.00 | 0.00 | 2.36 | 66 | 1018.5 |
| 20260507002649 | 3 | 239 | 1.6 | 3.2 | 0.00 | 0.00 | 2.36 | 68 | 1018.5 |
| 20260507002238 | 3 | 239 | 1.6 | 3.2 | 0.00 | 0.00 | 2.36 | 68 | 1018.5 |
| 20260507002144 | 3 | 223 | 1.6 | 3.2 | 0.00 | 0.00 | 2.36 | 68 | 1018.5 |
| 20260507001738 | 3 | 223 | 1.6 | 3.2 | 0.00 | 0.00 | 2.36 | 68 | 1018.5 |
| 20260507001638 | 3 | 239 | 1.6 | 1.6 | 0.00 | 0.00 | 2.36 | 67 | 1018.6 |
| 20260507001237 | 3 | 239 | 1.6 | 1.6 | 0.00 | 0.00 | 2.36 | 67 | 1018.6 |
| 20260507000736 | 3 | 170 | 1.6 | 3.2 | 0.00 | 0.00 | 2.36 | 68 | 1018.6 |
| 20260507000642 | 3 | 201 | 3.2 | 4.8 | 0.00 | 0.00 | 2.36 | 68 | 1018.6 |
| 20260507000236 | 3 | 201 | 3.2 | 4.8 | 0.00 | 0.00 | 2.36 | 68 | 1018.6 |
| 20260507000142 | 3 | 199 | 3.2 | 3.2 | 0.00 | 0.00 | 2.36 | 67 | 1018.6 |
| 20260506235735 | 3 | 199 | 3.2 | 3.2 | 0.00 | 0.00 | 2.36 | 67 | 1018.6 |
| 20260506235636 | 3 | 234 | 1.6 | 1.6 | 0.00 | 0.00 | 2.36 | 68 | 1018.6 |
| 20260506235234 | 3 | 234 | 1.6 | 1.6 | 0.00 | 0.00 | 2.36 | 68 | 1018.6 |
| 20260506235141 | 3 | 247 | 0.0 | 1.6 | 0.00 | 0.00 | 2.36 | 69 | 1018.6 |
| 20260506234734 | 3 | 247 | 0.0 | 1.6 | 0.00 | 0.00 | 2.36 | 69 | 1018.6 |
| 20260506234640 | 3 | 202 | 1.6 | 1.6 | 0.00 | 0.00 | 2.36 | 68 | 1018.5 |
| 20260506234233 | 3 | 202 | 1.6 | 1.6 | 0.00 | 0.00 | 2.36 | 68 | 1018.5 |
| 20260506234140 | 3 | 247 | 1.6 | 1.6 | 0.00 | 0.00 | 2.36 | 71 | 1018.6 |
| 20260506233732 | 3 | 247 | 1.6 | 1.6 | 0.00 | 0.00 | 2.36 | 71 | 1018.6 |
| 20260506233231 | 3 | 213 | 1.6 | 3.2 | 0.00 | 0.00 | 2.36 | 69 | 1018.6 |
| 20260506232731 | 3 | 183 | 1.6 | 1.6 | 0.00 | 0.00 | 2.36 | 66 | 1018.6 |
| 20260506232230 | 3 | 229 | 0.0 | 1.6 | 0.00 | 0.00 | 2.36 | 68 | 1018.6 |
| 20260506231729 | 3 | 192 | 1.6 | 3.2 | 0.00 | 0.03 | 2.36 | 68 | 1018.6 |
| 20260506231229 | 3 | 199 | 3.2 | 4.8 | 0.00 | 0.03 | 2.36 | 66 | 1018.8 |
| 20260506230728 | 3 | 152 | 0.0 | 0.0 | 0.00 | 0.03 | 2.36 | 70 | 1018.8 |
| 20260506230227 | 3 | 208 | 1.6 | 3.2 | 0.00 | 0.05 | 2.36 | 67 | 1018.8 |
| 20260506225727 | 3 | 177 | 1.6 | 1.6 | 0.00 | 0.08 | 2.36 | 67 | 1018.8 |
| 20260506225226 | 3 | 197 | 1.6 | 3.2 | 0.00 | 0.10 | 2.36 | 67 | 1018.8 |
| 20260506224726 | 3 | 243 | 1.6 | 1.6 | 0.00 | 0.10 | 2.36 | 69 | 1018.9 |
| 20260506224225 | 3 | 259 | 0.0 | 1.6 | 0.00 | 0.10 | 2.36 | 69 | 1018.9 |
| 20260506224135 | 3 | 231 | 1.6 | 3.2 | 0.00 | 0.13 | 2.36 | 68 | 1018.9 |
| 20260506223724 | 3 | 231 | 1.6 | 3.2 | 0.00 | 0.13 | 2.36 | 68 | 1018.9 |
| 20260506223224 | 3 | 249 | 1.6 | 1.6 | 0.00 | 0.13 | 2.36 | 69 | 1019.0 |
| 20260506223129 | 2 | 176 | 1.6 | 1.6 | 0.00 | 0.15 | 2.36 | 67 | 1019.1 |
| 20260506222723 | 2 | 176 | 1.6 | 1.6 | 0.00 | 0.15 | 2.36 | 67 | 1019.1 |
| 20260506222628 | 2 | 196 | 3.2 | 3.2 | 0.00 | 0.18 | 2.36 | 69 | 1019.1 |
| 20260506222222 | 2 | 196 | 3.2 | 3.2 | 0.00 | 0.18 | 2.36 | 69 | 1019.1 |
| 20260506222128 | 2 | 235 | 1.6 | 1.6 | 0.00 | 0.18 | 2.36 | 71 | 1019.2 |
| 20260506221722 | 2 | 235 | 1.6 | 1.6 | 0.00 | 0.18 | 2.36 | 71 | 1019.2 |
| 20260506221632 | 2 | 225 | 1.6 | 1.6 | 0.00 | 0.18 | 2.36 | 73 | 1019.2 |
| 20260506221221 | 2 | 225 | 1.6 | 1.6 | 0.00 | 0.18 | 2.36 | 73 | 1019.2 |
| 20260506221127 | 2 | 256 | 1.6 | 1.6 | 0.00 | 0.18 | 2.36 | 72 | 1019.4 |
| 20260506220721 | 2 | 256 | 1.6 | 1.6 | 0.00 | 0.18 | 2.36 | 72 | 1019.4 |
| 20260506220220 | 3 | 232 | 0.0 | 0.0 | 0.00 | 0.18 | 2.36 | 72 | 1019.4 |
| 20260506220154 | 2 | 21 | 0.0 | 0.0 | 0.00 | 0.18 | 2.36 | 73 | 1019.5 |
| 20260506215719 | 2 | 21 | 0.0 | 0.0 | 0.00 | 0.18 | 2.36 | 73 | 1019.5 |
| 20260506215219 | 2 | 235 | 0.0 | 0.0 | 0.00 | 0.18 | 2.36 | 73 | 1019.4 |
| 20260506214718 | 2 | 258 | 0.0 | 1.6 | 0.00 | 0.18 | 2.36 | 74 | 1019.4 |
| 20260506214620 | 2 | 228 | 0.0 | 1.6 | 0.00 | 0.18 | 2.36 | 72 | 1019.5 |
| 20260506214217 | 2 | 228 | 0.0 | 1.6 | 0.00 | 0.18 | 2.36 | 72 | 1019.5 |
| 20260506214124 | 2 | 176 | 1.6 | 1.6 | 0.00 | 0.18 | 2.36 | 73 | 1019.5 |
| 20260506213717 | 2 | 176 | 1.6 | 1.6 | 0.00 | 0.18 | 2.36 | 73 | 1019.5 |
| 20260506213216 | 2 | 226 | 1.6 | 1.6 | 0.00 | 0.18 | 2.36 | 74 | 1019.5 |
| 20260506212715 | 2 | 235 | 0.0 | 1.6 | 0.00 | 0.18 | 2.36 | 75 | 1019.6 |
| 20260506212215 | 2 | 107 | 0.0 | 1.6 | 0.00 | 0.18 | 2.36 | 75 | 1019.6 |
| 20260506211714 | 2 | 214 | 0.0 | 1.6 | 0.00 | 0.18 | 2.36 | 75 | 1019.6 |
| 20260506211213 | 2 | 259 | 0.0 | 0.0 | 0.00 | 0.18 | 2.36 | 76 | 1019.7 |
| 20260506210713 | 2 | 228 | 0.0 | 0.0 | 0.00 | 0.18 | 2.36 | 75 | 1019.7 |
| 20260506210212 | 2 | 0 | 0.0 | 0.0 | 0.00 | 0.18 | 2.36 | 78 | 1019.8 |
| 20260506205712 | 2 | 0 | 0.0 | 0.0 | 0.00 | 0.18 | 2.36 | 77 | 1019.8 |
| 20260506205211 | 2 | 173 | 0.0 | 0.0 | 0.00 | 0.18 | 2.36 | 77 | 1019.9 |
| 20260506204710 | 2 | 211 | 1.6 | 1.6 | 0.00 | 0.18 | 2.36 | 73 | 1019.9 |
| 20260506204210 | 3 | 211 | 1.6 | 1.6 | 0.00 | 0.18 | 2.36 | 70 | 1020.1 |
| 20260506203709 | 3 | 90 | 0.0 | 0.0 | 0.00 | 0.20 | 2.36 | 76 | 1020.1 |
| 20260506203208 | 3 | 125 | 0.0 | 1.6 | 0.00 | 0.23 | 2.36 | 75 | 1020.1 |
| 20260506203118 | 3 | 51 | 0.0 | 1.6 | 0.00 | 0.23 | 2.36 | 73 | 1020.2 |
| 20260506202708 | 3 | 51 | 0.0 | 1.6 | 0.00 | 0.23 | 2.36 | 73 | 1020.2 |
| 20260506202608 | 3 | 92 | 1.6 | 1.6 | 0.00 | 0.23 | 2.36 | 72 | 1020.1 |
| 20260506202207 | 3 | 92 | 1.6 | 1.6 | 0.00 | 0.23 | 2.36 | 72 | 1020.1 |
| 20260506202107 | 3 | 215 | 0.0 | 1.6 | 0.00 | 0.23 | 2.36 | 73 | 1020.2 |
| 20260506201706 | 3 | 215 | 0.0 | 1.6 | 0.00 | 0.23 | 2.36 | 73 | 1020.2 |
| 20260506201617 | 3 | 99 | 0.0 | 0.0 | 0.00 | 0.23 | 2.36 | 75 | 1020.2 |
| 20260506201206 | 3 | 99 | 0.0 | 0.0 | 0.00 | 0.23 | 2.36 | 75 | 1020.2 |
| 20260506201116 | 3 | 99 | 0.0 | 1.6 | 0.00 | 0.23 | 2.36 | 74 | 1020.2 |
| 20260506200705 | 3 | 99 | 0.0 | 1.6 | 0.00 | 0.23 | 2.36 | 74 | 1020.2 |
| 20260506200616 | 3 | 0 | 0.0 | 0.0 | 0.00 | 0.23 | 2.36 | 76 | 1020.2 |
| 20260506200204 | 3 | 0 | 0.0 | 0.0 | 0.00 | 0.23 | 2.36 | 76 | 1020.2 |